Powrót do katalogu

HULIANWANG DIGUI-175

AktywnyNaukaLEO
NORAD 69578·PAYLOAD·🇨🇳 China

Wystrzelony Jun 17, 2026 z Wenchang Space Launch Site

Loading…

Następne Przeloty (najbliższe 24 godziny)

TLE

ŚwieżeSource: Space-Track

Epoka: Sep 14, 2026, 10:15 UTC

1 69578U 26137G   26257.42737807 -.00000092  00000-0  68031-4 0  9998
2 69578  49.9964 275.6091 0000191 337.9118  22.1746 13.29327170 12214

Śledź HULIANWANG DIGUI-175 w czasie rzeczywistym z AllMySat

Download on the App Store